Погода в Санто-Доминго-Есте

Доминиканская Республика     18°30′19″N   69°51′24″W
темп.,
°C
ветер,
м/с
пор.,
м/с
влажн.,
%
обл.,
%
осадки,
мм/ч
давл.,
гПа
погр.,
м
27 ноября, сб
сб2723:00+22ссв228670 0.0 101555
02:00+22ссв128641 0.0 101346
05:00+21с11906 0.0 101337
08:00+22ссв1285100 0.0 101598
11:00+28ссв23572 0.0 10161074
14:00+31в134870 0.0 10121771
17:00+27всв366527 0.1 1012411
20:00+23св377789 0.1 1014248
28 ноября, вс
вс2823:00+21ссз35850 0.0 1015125
02:00+21с358855 0.0 1014122
05:00+20с3690100 0.0 1014153
08:00+22с248461 0.0 1016145
11:00+29ссв345699 0.0 10161350
14:00+32св234367 0.0 10121834
17:00+28св365495 0.0 1012487
20:00+24св388118 0.0 1014298
29 ноября, пн
пн2923:00+22ссз239214 0.0 101597
02:00+21ссз249313 0.0 1014102
05:00+21с239514 0.0 101374
08:00+22с23905 0.0 1015113
11:00+29св125862 0.0 10151035
14:00+31ююз22486 0.0 10121576
17:00+28ю34665 0.0 1012421
20:00+24в12885 0.2 101456
30 ноября, вт
вт3023:00+22ссв229477 0.1 101566
02:00+21с239520 0.1 101472
05:00+21с249541 0.0 101493
08:00+22с369224 0.0 1016190
11:00+29ссв345792 0.0 10161298
14:00+32всв334132 0.0 10132094
17:00+30всв455179 0.0 1013764
20:00+24св398039 0.0 1016281
1 декабря, ср
ср123:00+22ссз3691100 0.0 1016148
02:00+22ссз3591100 0.0 1016128
05:00+21с3694100 0.0 1015150
08:00+23с358691 0.0 1017170
11:00+30св356049 0.1 10181433
14:00+31всв455389 0.4 10141663
17:00+27всв367592 0.8 1014314
20:00+23св379392 1.8 1017199